Retour au catalogue

COSMOS 903 DEB

LostHEO
NORAD 32962·DEBRIS·🇷🇺 Russia

Lancé Apr 11, 1977 depuis Plesetsk Cosmodrome

Loading…

Prochains Passages (prochaines 24 heures)

TLE

PériméSource: Space-Track

Époque: Sep 16, 2011, 21:35 UTC

1 32962U 77027H   11259.89968049 -.00000695  00000-0  00000+0 0  9996
2 32962  67.1851 280.7157 6080929  53.2508 357.9332  1.98897443 47937

Suivez COSMOS 903 DEB en temps réel avec AllMySat

Download on the App Store